Precipitable_Water
0.73 0.93 0.96 0.89 0.79 0.76 0.76 0.74 0.73 0.75 0.82 0.90 0.97 1.07 1.09 1.13 1.11 1.05 1.02 1.02 1.11 1.07 1.03 1.09 1.12 1.18 1.20 1.17 1.18 1.10 1.12 1.15 1.17 1.19 1.18 1.08 1.06 1.07 1.08 1.08 1.07 1.07 1.10
0.70 0.94 0.95 0.90 0.82 0.77 0.78 0.77 0.75 0.78 0.81 0.83 0.89 0.95 1.02 1.04 1.05 1.05 0.99 0.95 1.00 0.96 0.90 0.93 1.04 1.06 1.05 1.05 1.05 1.10 1.14 1.16 1.17 1.18 1.13 1.08 1.04 1.04 1.04 1.04 1.00 1.04 1.05
0.77 0.92 0.94 0.90 0.85 0.79 0.78 0.79 0.77 0.78 0.83 0.85 0.88 0.93 0.97 0.99 1.01 0.98 0.94 0.87 0.84 0.83 0.85 0.89 0.96 0.98 1.01 1.03 1.04 1.08 1.11 1.12 1.11 1.11 1.10 1.03 0.99 0.98 0.98 0.98 1.02 1.03 1.02
0.85 0.94 0.93 0.89 0.87 0.82 0.78 0.80 0.80 0.78 0.83 0.87 0.90 0.95 0.98 0.97 0.95 0.94 0.91 0.86 0.81 0.82 0.87 0.91 0.94 0.96 0.96 0.96 0.98 0.98 0.95 0.93 0.91 0.93 0.95 0.93 0.92 0.93 0.94 0.96 0.97 0.98 0.97
0.90 0.96 0.93 0.89 0.87 0.84 0.81 0.82 0.82 0.78 0.81 0.85 0.90 0.95 0.97 0.96 0.95 0.94 0.92 0.88 0.82 0.85 0.91 0.95 0.92 0.93 0.95 0.99 1.03 1.01 0.99 0.97 0.93 0.80 0.83 0.87 0.88 0.92 0.92 0.93 0.95 0.96 0.95
0.91 0.97 0.93 0.91 0.88 0.86 0.84 0.84 0.85 0.81 0.80 0.84 0.89 0.96 0.98 0.98 0.94 0.92 0.91 0.88 0.85 0.88 0.92 0.94 0.90 0.93 0.98 1.03 1.08 1.05 1.00 0.99 0.99 0.94 0.84 0.87 0.87 0.90 0.90 0.94 0.89 0.90 0.92
0.87 0.98 0.93 0.93 0.92 0.89 0.87 0.85 0.87 0.85 0.82 0.85 0.88 0.94 0.97 0.96 0.93 0.90 0.87 0.84 0.86 0.87 0.87 0.88 0.88 0.91 1.01 1.09 1.11 1.06 1.02 1.06 1.04 1.01 1.02 1.02 1.04 1.02 0.97 0.93 0.89 0.90 0.91
0.77 0.94 0.94 0.95 0.94 0.91 0.91 0.88 0.87 0.87 0.83 0.86 0.89 0.93 0.96 0.94 0.91 0.88 0.86 0.85 0.87 0.88 0.86 0.83 0.82 0.89 1.02 1.08 1.09 1.09 1.09 1.09 1.10 1.09 1.08 1.05 1.12 1.11 1.03 1.00 0.98 0.98 0.98
0.84 0.87 0.96 1.01 1.01 0.95 0.93 0.90 0.87 0.87 0.86 0.84 0.88 0.91 0.94 0.95 0.91 0.90 0.89 0.87 0.88 0.87 0.88 0.85 0.83 0.84 0.99 1.06 1.11 1.13 1.11 1.07 1.11 1.11 1.10 1.06 1.18 1.18 1.13 1.04 0.99 1.02 1.04
0.83 0.88 0.94 1.03 1.05 1.01 0.97 0.92 0.88 0.87 0.87 0.83 0.86 0.89 0.91 0.93 0.93 0.91 0.90 0.90 0.89 0.87 0.88 0.89 0.84 0.88 0.99 1.05 1.11 1.11 1.10 1.04 1.06 1.16 1.12 1.11 1.20 1.22 1.16 1.07 1.03 1.05 1.10
0.84 0.87 0.96 1.00 1.05 1.04 1.02 0.98 0.93 0.87 0.87 0.85 0.85 0.88 0.91 0.91 0.91 0.91 0.89 0.89 0.90 0.88 0.86 0.91 0.91 0.89 0.99 1.07 1.11 1.13 1.11 1.02 1.05 1.19 1.16 1.17 1.20 1.22 1.16 1.13 1.14 1.17 1.24
0.84 0.87 0.95 1.00 1.04 1.06 1.05 1.03 0.99 0.93 0.90 0.88 0.85 0.87 0.88 0.88 0.87 0.88 0.90 0.89 0.89 0.89 0.87 0.87 0.92 0.95 0.96 1.00 1.07 1.08 1.05 0.98 0.93 1.07 1.20 1.18 1.18 1.19 1.20 1.22 1.25 1.28 1.33
0.88 0.92 0.94 0.98 1.05 1.06 1.03 1.05 1.02 0.97 0.91 0.90 0.84 0.84 0.85 0.86 0.87 0.86 0.86 0.89 0.90 0.90 0.86 0.86 0.87 0.88 0.88 0.89 0.89 0.91 0.93 0.90 0.89 0.95 1.10 1.10 1.14 1.19 1.24 1.29 1.34 1.37 1.40
0.75 0.82 0.90 0.97 1.01 1.04 1.07 1.04 1.02 0.97 0.94 0.89 0.85 0.83 0.81 0.80 0.81 0.81 0.82 0.82 0.83 0.87 0.83 0.82 0.80 0.80 0.79 0.77 0.74 0.70 0.74 0.77 0.81 0.90 0.99 1.07 1.11 1.12 1.17 1.26 1.36 1.41 1.47
0.81 0.86 0.88 0.96 0.98 0.99 1.01 1.02 1.02 0.98 0.94 0.91 0.87 0.83 0.81 0.77 0.75 0.79 0.79 0.81 0.80 0.83 0.81 0.78 0.78 0.77 0.76 0.75 0.74 0.72 0.78 0.79 0.80 0.84 0.92 1.05 1.09 1.05 1.16 1.28 1.35 1.43 1.43
0.91 0.96 0.99 0.93 0.97 0.99 0.96 0.97 0.96 0.98 0.97 0.93 0.89 0.82 0.82 0.78 0.76 0.77 0.76 0.77 0.79 0.81 0.81 0.79 0.76 0.76 0.76 0.77 0.74 0.75 0.83 0.91 0.94 0.95 1.01 1.07 1.07 1.08 1.21 1.33 1.42 1.47 1.37
0.82 0.94 0.98 0.94 0.92 0.93 0.93 0.94 0.96 0.96 0.98 0.93 0.89 0.87 0.81 0.80 0.76 0.76 0.76 0.77 0.78 0.82 0.83 0.82 0.80 0.79 0.77 0.78 0.75 0.76 0.86 0.94 0.99 1.02 1.04 1.08 1.10 1.14 1.26 1.33 1.41 1.41 1.36
1.01 0.99 1.08 0.98 0.86 0.83 0.87 0.91 0.94 0.98 0.98 0.96 0.93 0.89 0.86 0.80 0.80 0.77 0.77 0.77 0.82 0.83 0.85 0.85 0.80 0.74 0.74 0.75 0.76 0.77 0.84 0.91 0.98 1.03 1.07 1.10 1.15 1.18 1.28 1.36 1.37 1.34 1.33
1.07 1.09 1.16 1.19 0.94 0.78 0.82 0.86 0.90 0.95 0.98 0.99 0.98 0.92 0.87 0.86 0.82 0.80 0.78 0.80 0.86 0.86 0.86 0.89 0.88 0.79 0.71 0.74 0.80 0.86 0.89 0.93 0.98 1.05 1.08 1.13 1.18 1.22 1.26 1.34 1.34 1.31 1.30
1.15 1.12 1.12 1.28 1.29 1.04 0.89 0.84 0.87 0.91 0.95 0.99 0.98 0.96 0.92 0.89 0.87 0.82 0.81 0.83 0.87 0.88 0.88 0.89 0.88 0.88 0.82 0.84 0.85 0.87 0.91 0.97 1.03 1.07 1.11 1.15 1.20 1.21 1.26 1.32 1.36 1.35 1.30
1.17 1.16 1.14 1.11 1.27 1.35 1.10 0.88 0.80 0.77 0.87 0.94 0.98 1.00 0.98 0.96 0.91 0.88 0.84 0.85 0.89 0.85 0.86 0.90 0.91 0.87 0.86 0.95 0.92 0.91 0.96 1.03 1.04 1.07 1.15 1.17 1.18 1.24 1.25 1.31 1.36 1.39 1.36
0.65 0.76 0.93 1.03 1.12 1.23 1.37 1.25 0.98 0.85 0.91 0.94 0.97 0.97 0.98 1.01 0.98 0.93 0.92 0.89 0.90 0.89 0.92 0.94 0.94 0.91 0.93 1.03 0.91 0.94 0.80 0.91 1.04 1.11 1.17 1.17 1.18 1.27 1.27 1.30 1.36 1.41 1.41
0.49 0.61 0.71 0.81 0.95 0.98 1.07 1.38 1.44 1.24 1.07 0.97 0.97 0.98 1.00 1.02 1.05 1.05 1.04 0.99 0.98 0.98 0.94 0.97 1.01 0.98 0.92 1.05 1.10 0.99 0.83 0.71 0.86 1.04 1.09 1.16 1.19 1.23 1.29 1.34 1.39 1.40 1.41
0.42 0.55 0.67 0.71 0.81 0.86 0.94 0.96 1.19 1.26 1.15 1.03 0.97 1.05 1.13 1.14 1.08 1.12 1.18 1.15 1.11 1.12 1.07 1.06 1.13 1.10 1.09 0.99 1.15 1.17 1.15 1.06 0.84 0.76 1.01 1.14 1.24 1.23 1.27 1.34 1.37 1.38 1.41
0.43 0.45 0.63 0.69 0.73 0.79 0.81 0.85 0.88 1.10 1.27 1.37 1.40 1.18 1.15 1.19 1.17 1.12 1.18 1.21 1.20 1.22 1.23 1.23 1.21 1.21 1.20 1.16 1.13 1.16 1.19 1.18 1.14 1.01 0.90 0.98 1.16 1.26 1.32 1.35 1.38 1.39 1.40
0.45 0.45 0.54 0.66 0.73 0.83 0.85 0.82 0.89 1.03 1.10 1.09 1.24 1.31 1.22 1.15 1.20 1.23 1.19 1.20 1.24 1.27 1.28 1.32 1.34 1.31 1.31 1.31 1.36 1.35 1.25 1.16 1.09 1.08 1.03 1.04 1.04 1.16 1.28 1.32 1.35 1.37 1.40
Wind_Speed
11 13 13 13 13 13 13 13 13 13 13 13 14 14 14 14 14 14 14 15 15 15 16 16 16 16 17 17 18 18 19 19 19 18 18 19 19 19 18 18 17 17 16
13 15 15 14 14 13 13 13 13 13 13 13 14 14 14 14 14 14 14 14 14 14 14 15 15 16 16 17 17 18 18 18 18 18 18 18 17 17 16 16 16 15 15
15 16 16 15 15 14 14 14 13 14 14 14 14 14 14 13 13 13 13 13 13 13 13 14 15 15 16 16 16 17 17 17 17 16 16 16 15 15 14 14 14 13 13
16 16 16 16 15 14 14 14 14 14 14 14 14 13 13 13 13 12 12 12 12 12 13 13 14 14 15 15 16 16 16 16 15 14 14 13 13 13 12 12 12 11 11
16 16 16 16 16 15 14 14 13 13 13 13 13 13 13 12 12 12 12 12 12 12 12 13 13 14 14 14 15 14 14 13 12 12 11 11 11 10 10 9 9 9 9
16 16 17 16 16 15 14 13 13 13 13 13 13 12 12 12 12 11 11 11 11 11 12 12 13 13 13 13 13 12 11 10 10 10 10 9 8 8 7 7 7 6 6
18 17 17 16 16 15 14 13 13 12 12 12 12 12 12 11 11 11 11 11 11 11 11 12 12 12 12 12 11 10 9 8 7 7 7 6 6 6 5 5 5 5 5
19 18 18 17 16 15 14 14 13 12 12 11 11 11 11 11 11 11 10 10 10 10 11 11 11 11 11 11 10 8 7 6 5 5 5 4 4 3 3 3 4 4 5
20 19 18 17 16 15 15 14 13 12 12 11 11 11 11 11 11 10 10 10 10 10 10 11 11 11 10 9 8 7 5 4 3 3 2 1 1 2 4 5 5 6 7
21 21 20 18 17 16 15 14 14 13 12 12 11 11 11 11 11 10 10 10 9 9 9 10 10 10 9 8 6 5 3 2 1 2 1 2 3 5 6 7 8 9 9
22 23 21 20 18 17 16 15 14 13 13 13 12 12 11 11 11 11 11 10 10 9 9 9 9 9 8 7 5 4 3 1 1 2 3 4 6 7 8 9 9 10 10
25 24 23 22 20 19 17 16 14 14 13 13 13 13 13 12 12 12 12 11 11 10 9 9 9 8 8 7 6 5 5 4 4 4 5 6 7 8 9 10 10 11 11
27 26 25 24 22 21 19 17 16 15 14 13 14 14 14 14 13 13 13 12 12 12 11 10 10 9 9 8 8 7 7 7 7 7 8 8 9 10 10 11 11 12 12
29 28 27 26 24 23 21 19 18 16 15 14 14 15 15 15 14 14 13 14 13 13 12 12 11 11 10 10 10 10 9 9 10 10 10 10 11 11 12 12 13 14 14
31 30 30 28 27 25 24 22 20 18 17 16 15 15 16 16 16 15 15 14 14 15 14 14 13 13 12 12 12 11 11 11 11 12 12 12 13 13 13 14 14 14 15
30 31 32 31 29 28 26 25 22 21 19 17 16 15 16 17 17 17 16 16 16 15 15 15 14 14 14 14 13 13 13 13 13 14 14 14 15 15 15 15 15 15 15
31 33 33 34 33 31 29 27 25 23 21 19 18 17 16 18 18 18 17 17 17 17 16 16 16 15 15 15 15 15 15 15 15 15 16 16 17 17 16 17 16 16 15
31 33 34 35 36 34 32 30 28 27 25 22 21 19 18 18 19 19 19 18 18 17 17 17 17 17 17 16 16 16 16 17 17 17 18 17 18 18 18 17 17 17 17
32 32 33 35 37 37 36 34 32 30 28 26 24 22 21 20 19 20 20 20 19 19 19 18 18 18 18 17 17 17 17 17 17 18 18 18 18 18 18 18 18 18 18
33 33 34 35 35 38 38 37 36 34 32 30 28 26 25 23 22 21 21 21 21 20 20 20 19 19 18 18 18 18 18 19 19 19 19 19 20 20 19 19 19 20 19
39 37 37 36 36 36 38 39 38 37 35 33 32 30 29 27 25 24 22 22 22 22 21 21 20 19 19 18 17 18 19 19 21 21 21 21 21 21 21 21 21 20 20
39 38 39 39 38 38 38 38 39 39 38 37 35 34 33 31 29 28 26 25 24 23 22 22 21 19 20 19 17 17 17 18 21 22 22 22 23 23 22 22 22 22 21
40 40 41 41 41 41 39 39 38 38 39 39 38 37 35 35 34 32 30 28 27 26 25 24 24 23 22 22 23 20 17 18 18 20 23 24 24 24 24 24 24 23 23
43 44 45 43 44 43 43 42 42 41 40 40 41 40 39 38 37 36 34 32 30 29 28 27 27 27 27 25 26 28 27 23 21 21 22 24 25 26 26 26 25 25 25
45 45 46 50 49 47 46 46 45 44 42 40 40 42 43 41 40 39 38 36 35 34 32 31 30 30 30 31 29 29 32 30 29 28 27 26 27 28 29 29 28 27 28
44 44 46 46 47 50 50 49 47 46 43 41 42 42 43 43 44 43 41 40 38 37 36 35 34 34 34 34 34 34 34 33 33 32 32 31 31 32 32 31 30 30 30
Wind_Direction
169 159 152 145 138 133 131 131 133 134 134 133 133 132 130 126 122 119 117 115 113 110 108 107 106 106 106 105 106 105 103 102 101 101 99 97 97 95 93 91 89 87 86
159 159 154 148 143 138 135 132 131 132 133 134 135 134 133 130 126 123 121 118 116 113 111 109 109 109 109 108 107 106 104 103 103 102 101 98 96 94 92 90 88 86 84
158 158 155 151 146 142 139 137 135 134 133 133 135 136 135 133 131 127 124 122 119 117 116 114 113 113 113 113 111 109 106 105 104 102 101 99 96 93 91 89 86 84 81
161 158 158 155 150 145 141 140 139 138 136 135 134 136 137 136 134 132 129 126 124 123 122 120 118 117 116 116 115 113 110 108 104 104 102 99 96 93 90 87 84 80 77
168 165 163 159 155 150 145 142 141 142 141 139 137 136 137 137 137 135 133 131 129 127 127 126 124 122 121 120 119 117 113 108 103 104 102 99 96 92 88 83 78 73 68
172 170 168 165 162 157 153 149 145 144 145 145 142 141 139 139 139 139 136 135 134 133 133 132 131 128 126 124 123 122 116 111 108 105 102 98 93 90 83 74 67 61 53
176 174 172 170 168 166 162 158 155 151 149 149 150 147 145 143 142 142 141 139 138 137 138 138 136 135 132 130 127 123 117 112 108 114 108 97 89 84 72 60 47 36 25
182 180 178 175 174 174 172 169 166 163 160 157 156 156 154 151 148 147 146 145 143 140 141 143 143 141 139 136 132 128 121 110 106 117 115 98 80 67 41 20 5 355 347
191 188 184 183 182 181 181 179 177 175 173 171 168 167 166 163 160 157 154 153 151 149 147 148 149 149 149 146 140 134 124 101 103 139 125 102 32 355 342 332 327 325 325
195 195 192 190 189 188 187 187 187 187 185 184 182 180 179 177 174 171 168 165 162 160 159 159 159 160 161 159 157 155 144 113 64 167 206 274 307 313 314 315 312 311 311
199 199 198 196 195 194 193 192 193 195 194 195 194 193 191 191 189 186 185 182 179 177 175 174 175 176 178 181 185 192 208 241 308 248 266 284 296 306 307 307 308 306 306
202 202 203 202 201 200 199 198 199 200 202 203 204 204 204 202 200 200 198 197 195 194 194 194 194 195 199 204 210 222 240 258 276 280 278 284 291 302 306 305 306 304 303
206 206 206 206 206 206 206 204 205 206 207 209 211 211 211 210 209 209 209 208 208 208 209 210 212 214 218 225 231 236 251 263 273 283 278 283 288 297 302 305 305 304 303
210 210 210 210 210 210 210 211 211 212 212 214 215 216 215 216 216 217 217 217 218 218 220 221 223 226 231 236 243 249 254 265 271 278 282 281 287 293 298 302 304 304 301
214 215 214 214 214 214 214 215 216 217 218 219 220 221 221 221 221 221 222 223 224 225 227 229 231 233 238 243 249 254 259 267 272 277 281 282 285 289 293 298 301 303 302
220 219 218 218 217 217 217 218 219 220 221 222 225 226 225 224 225 225 227 228 229 230 231 233 235 238 242 247 252 256 261 267 274 276 280 283 284 287 290 294 297 301 301
225 223 222 220 220 220 220 221 223 223 224 227 228 228 228 227 226 228 230 231 232 234 235 237 240 242 246 250 254 258 261 266 273 276 279 282 282 284 286 291 293 297 297
226 225 225 223 223 223 223 224 225 226 227 229 230 230 231 230 229 230 232 234 235 236 238 242 243 246 248 252 256 259 263 268 272 276 279 281 282 281 282 285 288 291 293
226 226 226 226 225 225 226 227 227 228 230 232 233 233 234 233 232 233 235 236 236 239 241 243 245 247 250 252 256 260 264 269 274 277 279 279 279 280 280 283 285 287 288
226 227 228 227 227 226 228 228 229 231 232 233 235 236 235 235 235 236 238 239 238 241 242 243 245 248 250 253 258 262 266 270 274 277 278 279 279 278 278 280 282 285 284
230 230 229 228 228 227 228 229 231 232 234 235 236 237 237 237 237 238 240 240 240 240 241 242 244 246 249 252 259 265 270 272 275 277 278 279 279 277 277 277 280 281 281
231 230 230 231 230 230 231 233 234 234 236 236 237 238 239 240 239 240 241 242 241 241 241 242 242 246 250 251 258 267 276 279 276 276 278 277 278 277 276 275 277 277 277
233 231 231 232 232 233 234 234 235 235 237 237 238 239 240 240 240 241 242 241 241 241 243 244 245 247 252 255 255 262 273 277 286 284 277 277 278 276 276 276 276 274 273
237 237 235 234 233 234 234 235 234 236 238 239 239 240 240 239 240 240 242 242 242 243 244 246 248 251 253 257 260 260 265 274 278 286 287 283 278 277 277 277 275 273 272
240 240 238 236 235 235 235 236 236 237 239 240 240 240 239 240 241 241 241 241 243 245 247 249 250 252 254 257 261 265 265 269 274 277 282 284 282 280 277 276 276 273 272
239 240 239 237 238 236 235 235 235 236 237 239 240 241 241 241 242 242 243 244 245 246 247 250 253 254 256 259 262 264 266 269 271 274 277 279 280 279 278 276 274 274 273